Regional Weather Roundup
Issued by NWS Newport/Morehead, NC

Current Version | Previous Version | Text Only | Print | Product List | Glossary Off
Versions: 1 2 3 4 5 6 7 8 9 10 11 12 13 14 15 16 17 18 19 20 21 22 23 24 25 26 27 28 29 30 31 32 33 34 35 36 37 38 39 40 41 42 43 44 45 46 47 48 49 50
000 ASUS42 KMHX 170025 RWRMHX WEATHER ROUNDUP FOR EASTERN NORTH CAROLINA NATIONAL WEATHER SERVICE NEWPORT/MOREHEAD CITY NC 700 PM EST TUE JAN 16 2018 NOTE: "FAIR" INDICATES FEW OR NO CLOUDS BELOW 12,000 FEET WITH NO SIGNIFICANT WEATHER AND/OR OBSTRUCTIONS TO VISIBILITY NCZ015>017-031-032-045>047-102-103-170100- NORTH COAST CITY SKY/WX TMP DP RH WIND PRES REMARKS EDENTON NOT AVBL ELIZABETH CITY FAIR 35 35 100 SW3 30.38R KITTY HAWK CLOUDY N/A N/A N/A CALM 30.36S FOG MANTEO FOG 34 34 100 N3 30.38S VSB 1/2 $$ NCZ045>047-081-094-103-104-170100- CENTRAL COAST CITY SKY/WX TMP DP RH WIND PRES REMARKS FRISCO FAIR 38 37 97 NE5 30.36S $$ NCZ095-097-098-100-101-170100- SOUTHERN COAST CITY SKY/WX TMP DP RH WIND PRES REMARKS BEAUFORT FAIR 39 37 92 CALM 30.36S CEDAR ISLAND NOT AVBL JACKSONVILLE FAIR 40 33 76 CALM 30.36S PINEY ISLAND NOT AVBL WILMINGTON FAIR 41 31 67 CALM 30.37S $$ NCZ011>013-027>030-043-044-078>080-089-090>093-098-170100- COASTAL PLAIN CITY SKY/WX TMP DP RH WIND PRES REMARKS AHOSKIE FAIR 32 29 88 CALM 30.36F CLINTON FAIR 37 29 72 CALM 30.37R ELIZABETHTOWN NOT AVBL GOLDSBORO CLEAR 37 26 64 CALM 30.34F GREENVILLE FAIR 37 27 65 CALM 30.36F HAVELOCK CLEAR 42 36 79 SE3 30.37S KENANSVILLE FAIR 32 28 86 CALM 30.36S KINSTON FAIR N/A N/A N/A CALM 30.36F NEW BERN FAIR 39 32 76 CALM 30.37S RICHLANDS FAIR 38 33 82 CALM 30.37S ROCKY MOUNT FAIR 33 28 81 CALM 30.35F WASHINGTON FAIR 38 31 76 CALM 30.37S WHITEVILLE FAIR 41 30 65 CALM 30.35F $$ AMZ130-135-150-152-154-156-158-170-250-252-270-ANZ085-086-088-633-658-670-170100- MARINE OBSERVATIONS STATION/POSITION TIME TEMP WIND PRES WAVE SWELL AIR SEA DIR/SP/G HT/PER HT/PER (UTC) (F) (DEG/KT/KT) (MB) (FT/S) (FT/S) CHESAPEAKE LIGHT NOT AVBL 64 E VA BEACH 2350 45 64 300/ 10/ 12 1027.9 8/11 7/11 DUCK 0000 35 40 340/ 4/ 5 1028.1 2 E DUCK 0000 39 N/A 5/11 3/11 OREGON INLET 0000 35 41 330/ 5/ 6 1028.4 13E OREGON INLT 2348 45 N/A 7/10 7/10 HATTERAS CG 0000 39 47 30/ 6/ 9 1027.7 DIAMOND BUOY 0010 47 67 360/ 10/ 14 1028.0 CAPE LOOKOUT 0000 340/ 5/ 6 1028.0 BEAUFORT LAB 0000 42 46 30/ 2/ 3 1027.9 30 SE NEW RVR IN 2308 51 59 360/ 6/ 8 1027.8 30 SE NEW RVR IN 0000 59 N/A 4/11 2/11 27 SE WRIGHTSVLE 2308 51 63 330/ 6/ 8 1027.8 5 SE WRIGHTSVLE 0008 46 47 270/ 4/ 8 1027.7 225 S CAPE HAT 2350 65 71 70/ 10/ 12 1025.1 8/ 9 8/ 9 41 SE CHARLESTON 0010 55 69 10/ 6/ 8 1027.5 $$

USA.gov is the U.S. government's official web portal to all federal, state and local government web resources and services.